Location: Mainz-Finthen
(49.9906°N, 8.1713°E)
Time: 22:57:32
(UTC+00:00)

ISS - Visible Passes

Search period start: 21 September 2021 00:00
Search period end: 01 October 2021 00:00
Orbit: 419 x 423 km, 51.6° (Epoch: 21 September)

Date Brightness Start Highest point End Pass type
(mag) Time Alt. Az. Time Alt. Az. Time Alt. Az.
21 Sep -3.4 18:08:16 10° SW 18:11:33 50° SSE 18:14:50 10° ENE visible
21 Sep -3.1 19:45:01 10° W 19:47:52 56° WNW 19:47:52 56° WNW visible
22 Sep -3.7 18:58:03 10° W 19:01:27 77° NNW 19:02:48 33° ENE visible
22 Sep -0.7 20:35:05 10° WNW 20:35:48 15° WNW 20:35:48 15° WNW visible
23 Sep -3.8 18:11:09 10° WSW 18:14:32 89° SSE 18:17:41 12° ENE visible
23 Sep -2.6 19:48:09 10° W 19:50:41 44° WNW 19:50:41 44° WNW visible
24 Sep -3.5 19:01:12 10° W 19:04:33 63° N 19:05:32 40° ENE visible
24 Sep -0.5 20:38:08 10° WNW 20:38:31 13° WNW 20:38:31 13° WNW visible
25 Sep -3.5 18:14:14 10° W 18:17:36 67° N 18:20:21 14° ENE visible
25 Sep -2.2 19:51:14 10° WNW 19:53:21 36° WNW 19:53:21 36° WNW visible
26 Sep -3.7 19:04:17 10° WNW 19:07:40 70° N 19:08:10 57° ENE visible
27 Sep -3.5 18:17:20 10° W 18:20:42 64° N 18:22:59 19° E visible
27 Sep -1.7 19:54:15 10° WNW 19:55:58 27° W 19:55:58 27° W visible
28 Sep -3.9 19:07:19 10° WNW 19:10:42 81° SSW 19:10:48 79° SSE visible
29 Sep -3.8 18:20:23 10° WNW 18:23:46 82° NNE 18:25:39 24° E visible
29 Sep -1.2 19:57:23 10° W 19:58:39 19° W 19:58:39 19° W visible
30 Sep -3.6 17:33:25 10° WNW 17:36:48 71° N 17:40:11 10° E visible
30 Sep -3.0 19:10:21 10° W 19:13:32 43° SSW 19:13:32 43° SSW visible
